CPA65 VHHX-OMDB

Flight info

Callsign CPA65
Flight time N/A
Altitude 40000
Route SIKOU/K0906S1100 A202 ASSAD/K0906F360 A206 NALAO/N0488F360 A206 LPB B465 APAGO/N0482F380 B465 CEA A791 BPL L639 GUREV/N0479F400 L639 RASKI L301 RAGMA N571 VUSET A454 PASOV M564 PUXIL P574 IMPED
Aircraft A346/H-SDE2E3FGHIJ3J4J5M1RWXY/LB1D1

Departure

Time N/A
Airport Hong Kong International Airport Kai Tak (VHHX)

Arrival

Time 2026-04-25 14:39
Airport Dubai International Airport (OMDB)
Time Latitude Longitude Altitude Speed Heading
2026-04-25 14:02 24.04115 58.78359 39855 ft 452 kts 290°
2026-04-25 14:03 24.06189 58.71846 39853 ft 451 kts 290°
2026-04-25 14:03 24.08253 58.65350 39853 ft 451 kts 290°
2026-04-25 14:04 24.10313 58.58862 39845 ft 451 kts 290°
2026-04-25 14:04 24.12376 58.52373 39840 ft 451 kts 290°
2026-04-25 14:05 24.14434 58.45886 39842 ft 450 kts 290°
2026-04-25 14:05 24.16486 58.39402 39843 ft 450 kts 290°
2026-04-25 14:06 24.18536 58.32911 39842 ft 450 kts 290°
2026-04-25 14:06 24.20567 58.26464 39842 ft 450 kts 290°
2026-04-25 14:07 24.22608 58.19979 39846 ft 449 kts 290°
2026-04-25 14:07 24.24643 58.13498 39850 ft 449 kts 290°
2026-04-25 14:08 24.26677 58.07013 39851 ft 449 kts 290°
2026-04-25 14:08 24.28364 58.01623 39853 ft 449 kts 290°
2026-04-25 14:09 24.30391 57.95139 39854 ft 449 kts 290°
2026-04-25 14:09 24.32415 57.88652 39850 ft 449 kts 290°
2026-04-25 14:10 24.34435 57.82166 39853 ft 449 kts 290°
2026-04-25 14:10 24.36460 57.75652 39854 ft 449 kts 290°
2026-04-25 14:11 24.38475 57.69157 39858 ft 449 kts 289°
2026-04-25 14:11 24.39482 57.65908 39717 ft 449 kts 289°
2026-04-25 14:11 24.40485 57.62667 39472 ft 447 kts 290°
2026-04-25 14:11 24.41479 57.59446 39210 ft 444 kts 290°
2026-04-25 14:12 24.42468 57.56244 38933 ft 441 kts 290°
2026-04-25 14:12 24.43449 57.53067 38568 ft 438 kts 290°
2026-04-25 14:12 24.44431 57.49894 38060 ft 438 kts 290°
2026-04-25 14:12 24.45414 57.46724 37440 ft 439 kts 289°
2026-04-25 14:13 24.46397 57.43550 36778 ft 440 kts 289°
2026-04-25 14:13 24.47383 57.40359 36050 ft 441 kts 289°
2026-04-25 14:13 24.48361 57.37187 35285 ft 433 kts 289°
2026-04-25 14:13 24.49320 57.34071 34590 ft 430 kts 288°
2026-04-25 14:14 24.50278 57.30956 33897 ft 429 kts 288°
2026-04-25 14:14 24.51234 57.27840 33187 ft 431 kts 288°
2026-04-25 14:14 24.52179 57.24750 32479 ft 434 kts 288°
2026-04-25 14:14 24.53148 57.21581 31782 ft 438 kts 288°
2026-04-25 14:15 24.54121 57.18399 31001 ft 441 kts 288°
2026-04-25 14:15 24.54783 57.16233 30476 ft 443 kts 288°
2026-04-25 14:15 24.56092 57.11947 29424 ft 448 kts 288°
2026-04-25 14:15 24.57088 57.08682 28619 ft 450 kts 288°
2026-04-25 14:16 24.58091 57.05394 28184 ft 458 kts 288°
2026-04-25 14:16 24.59102 57.02077 27695 ft 455 kts 288°
2026-04-25 14:16 24.60104 56.98786 27053 ft 450 kts 288°
2026-04-25 14:16 24.61087 56.95549 26583 ft 442 kts 288°
2026-04-25 14:17 24.62057 56.92358 26014 ft 438 kts 288°
2026-04-25 14:17 24.63014 56.89201 25514 ft 432 kts 287°
2026-04-25 14:17 24.63866 56.86050 25045 ft 427 kts 285°
2026-04-25 14:17 24.64569 56.82895 24579 ft 423 kts 282°
2026-04-25 14:18 24.65124 56.79733 24135 ft 420 kts 279°
2026-04-25 14:18 24.65572 56.76579 23705 ft 414 kts 279°
2026-04-25 14:18 24.66002 56.73463 23249 ft 409 kts 278°
2026-04-25 14:18 24.66423 56.70395 22807 ft 403 kts 278°
2026-04-25 14:19 24.66838 56.67359 22375 ft 398 kts 278°
2026-04-25 14:19 24.67313 56.64380 21914 ft 393 kts 285°
2026-04-25 14:19 24.68435 56.61632 21190 ft 396 kts 298°
2026-04-25 14:19 24.69870 56.59010 20301 ft 404 kts 301°
2026-04-25 14:20 24.71346 56.56388 19748 ft 401 kts 301°
2026-04-25 14:20 24.72305 56.54660 19434 ft 398 kts 300°
2026-04-25 14:20 24.74199 56.51177 18680 ft 395 kts 300°
2026-04-25 14:20 24.75587 56.48573 18123 ft 393 kts 299°
2026-04-25 14:21 24.76955 56.45982 17572 ft 391 kts 299°
2026-04-25 14:22 24.82343 56.35670 15875 ft 368 kts 299°
2026-04-25 14:22 24.83589 56.33278 15872 ft 351 kts 299°
2026-04-25 14:22 24.84776 56.30995 15865 ft 335 kts 299°
2026-04-25 14:22 24.85908 56.28814 15863 ft 321 kts 298°
2026-04-25 14:23 24.86999 56.26645 15873 ft 327 kts 299°
2026-04-25 14:23 24.88129 56.24438 15874 ft 334 kts 300°
2026-04-25 14:23 24.89302 56.22202 15878 ft 340 kts 300°
2026-04-25 14:23 24.90498 56.19927 15877 ft 346 kts 301°
2026-04-25 14:24 24.91716 56.17606 15880 ft 352 kts 300°
2026-04-25 14:24 24.92952 56.15242 15879 ft 363 kts 301°
2026-04-25 14:24 24.94276 56.12744 15883 ft 390 kts 299°
2026-04-25 14:24 24.95645 56.10079 15877 ft 398 kts 299°
2026-04-25 14:25 24.97126 56.07525 15877 ft 401 kts 304°
2026-04-25 14:25 24.98866 56.05026 15871 ft 411 kts 309°
2026-04-25 14:25 25.00710 56.02714 15870 ft 392 kts 311°
2026-04-25 14:25 25.01324 56.01965 15871 ft 386 kts 311°
2026-04-25 14:26 25.04213 55.98459 15873 ft 363 kts 310°
2026-04-25 14:26 25.05908 55.96390 15753 ft 359 kts 310°
2026-04-25 14:26 25.07542 55.94390 15425 ft 341 kts 310°
2026-04-25 14:26 25.09089 55.92497 15079 ft 323 kts 310°
2026-04-25 14:27 25.10564 55.90688 14586 ft 313 kts 310°
2026-04-25 14:27 25.12012 55.88909 13903 ft 310 kts 310°
2026-04-25 14:27 25.13445 55.87147 13229 ft 307 kts 310°
2026-04-25 14:27 25.14850 55.85385 12514 ft 305 kts 308°
2026-04-25 14:28 25.16133 55.83518 11700 ft 305 kts 303°
2026-04-25 14:28 25.17144 55.81790 11005 ft 306 kts 301°
2026-04-25 14:28 25.18243 55.79817 10204 ft 305 kts 300°
2026-04-25 14:28 25.19362 55.77797 9422 ft 304 kts 301°
2026-04-25 14:29 25.20465 55.75806 8663 ft 302 kts 301°
2026-04-25 14:29 25.21559 55.73836 7911 ft 299 kts 301°
2026-04-25 14:29 25.22644 55.71885 7138 ft 297 kts 301°
2026-04-25 14:29 25.23663 55.69911 6374 ft 295 kts 290°
2026-04-25 14:30 25.23883 55.67691 5585 ft 293 kts 259°
2026-04-25 14:30 25.21708 55.64049 4246 ft 286 kts 213°
2026-04-25 14:30 25.19931 55.63217 3893 ft 272 kts 191°
2026-04-25 14:31 25.18077 55.63166 3609 ft 262 kts 169°
2026-04-25 14:31 25.16414 55.63810 3353 ft 248 kts 148°
2026-04-25 14:31 25.15132 55.64966 3102 ft 236 kts 129°
2026-04-25 14:31 25.14107 55.66297 2978 ft 218 kts 144°
2026-04-25 14:32 25.12767 55.66902 2979 ft 210 kts 180°
2026-04-25 14:32 25.11379 55.66519 2998 ft 208 kts 217°
2026-04-25 14:32 25.10473 55.65311 3022 ft 207 kts 252°
2026-04-25 14:32 25.10401 55.63752 3094 ft 206 kts 283°
2026-04-25 14:33 25.10924 55.62306 3038 ft 198 kts 299°
2026-04-25 14:33 25.11617 55.61042 2998 ft 193 kts 297°
2026-04-25 14:33 25.12403 55.59711 3031 ft 210 kts 305°
2026-04-25 14:33 25.13200 55.58383 2997 ft 205 kts 303°
2026-04-25 14:34 25.13961 55.57052 2997 ft 205 kts 303°
2026-04-25 14:34 25.14702 55.55711 2995 ft 204 kts 302°
2026-04-25 14:34 25.15430 55.54361 2994 ft 204 kts 301°
2026-04-25 14:34 25.16140 55.53048 2861 ft 195 kts 302°
2026-04-25 14:35 25.16600 55.52201 2700 ft 193 kts 302°
2026-04-25 14:35 25.17518 55.50524 2355 ft 187 kts 302°
2026-04-25 14:35 25.18181 55.49316 2102 ft 179 kts 302°
2026-04-25 14:35 25.18809 55.48174 1864 ft 168 kts 302°
2026-04-25 14:36 25.19404 55.47092 1643 ft 163 kts 302°
2026-04-25 14:36 25.19989 55.46029 1446 ft 161 kts 302°
2026-04-25 14:36 25.20516 55.45072 1256 ft 150 kts 301°
2026-04-25 14:36 25.21054 55.44092 1042 ft 148 kts 302°
2026-04-25 14:37 25.21588 55.43120 856 ft 145 kts 302°
2026-04-25 14:37 25.22098 55.42196 657 ft 141 kts 302°
2026-04-25 14:37 25.22625 55.41241 495 ft 147 kts 301°
2026-04-25 14:37 25.23160 55.40270 308 ft 149 kts 302°
2026-04-25 14:38 25.23699 55.39297 93 ft 148 kts 302°
2026-04-25 14:38 25.24171 55.38452 65 ft 100 kts 301°
2026-04-25 14:38 25.24450 55.37942 52 ft 68 kts 301°
2026-04-25 14:38 25.24683 55.37513 43 ft 64 kts 301°
2026-04-25 14:39 25.24790 55.37131 36 ft 37 kts 272°
2026-04-25 14:39 25.24806 55.36968 33 ft 17 kts 289°
2026-04-25 14:39 25.24827 55.36910 33 ft 0 kts 293°
2026-04-25 14:39 25.24837 55.36883 32 ft 3 kts 292°
2026-04-25 14:40 25.24841 55.36873 32 ft 5 kts 292°
2026-04-25 14:40 25.24869 55.36778 31 ft 6 kts 281°
2026-04-25 14:40 25.24880 55.36720 31 ft 9 kts 284°
2026-04-25 14:40 25.24894 55.36670 31 ft 5 kts 289°
2026-04-25 14:41 25.24921 55.36615 30 ft 19 kts 303°
2026-04-25 14:41 25.24985 55.36499 30 ft 18 kts 300°
2026-04-25 14:41 25.25046 55.36387 30 ft 16 kts 302°
2026-04-25 14:41 25.25112 55.36270 30 ft 20 kts 302°
2026-04-25 14:42 25.25188 55.36135 30 ft 17 kts 302°
2026-04-25 14:42 25.25209 55.36096 30 ft 18 kts 302°
2026-04-25 14:42 25.25320 55.35898 30 ft 18 kts 301°
2026-04-25 14:42 25.25384 55.35779 29 ft 19 kts 301°
2026-04-25 14:43 25.25452 55.35655 30 ft 19 kts 302°
2026-04-25 14:43 25.25525 55.35524 30 ft 20 kts 301°
2026-04-25 14:43 25.25604 55.35382 30 ft 23 kts 301°
2026-04-25 14:43 25.25676 55.35254 29 ft 15 kts 301°
2026-04-25 14:44 25.25737 55.35142 29 ft 19 kts 301°
2026-04-25 14:44 25.25754 55.35012 29 ft 19 kts 238°
2026-04-25 14:44 25.25726 55.34918 29 ft 9 kts 259°
2026-04-25 14:44 25.25717 55.34866 29 ft 0 kts 260°
2026-04-25 14:45 25.25715 55.34850 29 ft 4 kts 261°
2026-04-25 14:45 25.25712 55.34831 29 ft 1 kts 260°
2026-04-25 14:45 25.25711 55.34822 29 ft 0 kts 260°
2026-04-25 14:45 25.25710 55.34821 29 ft 0 kts 260°
2026-04-25 14:46 25.25710 55.34818 29 ft 0 kts 260°
2026-04-25 14:46 25.25710 55.34816 29 ft 0 kts 260°